Regional Weather Roundup
Issued by NWS

Home | Current Version | Previous Version | Graphics & Text | Print | Product List | Glossary Off
Versions: 1 2 3 4 5 6 7 8 9 10 11 12 13 14 15 16 17 18 19 20 21 22 23 24 25 26 27 28 29 30 31 32 33 34 35 36 37 38 39 40 41 42 43 44 45 46 47 48 49 50

000
ASUS43 KMKX 301000
RWRWI

WISCONSIN REGIONAL WEATHER ROUNDUP
NATIONAL WEATHER SERVICE MILWAUKEE/SULLIVAN WI
500 AM CDT TUE JUN 30 2015

NOTE: "FAIR" INDICATES FEW OR NO CLOUDS BELOW 12,000 FEET WITH NO
SIGNIFICANT WEATHER AND/OR OBSTRUCTIONS TO VISIBILITY.

WIZ001-002-006>008-014>016-023>028-301100-
NORTHWEST WISCONSIN

CITY           SKY/WX    TMP DP  RH WIND       PRES   REMARKS
SUPERIOR ARPT  CLOUDY    61  60  97 NE5       29.89R
ASHLAND        CLOUDY    55  54  96 NE12      29.91R
HAYWARD        CLOUDY    59  58  96 NE8       29.89R
SIREN          PTCLDY    58  57  97 CALM      29.88R FOG
CUMBERLAND     CLOUDY    59  59 100 N7        29.87R
RICE LAKE      FOG       59  58  96 CALM      29.88R VSB 1/4
CHETEK         FOG       59  59 100 N6        29.87R VSB 1/2
LADYSMITH      CLOUDY    60  57  91 N5        29.87R
EAU CLAIRE     PTCLDY    53  52  96 CALM      29.84R FOG
MENOMONIE      CLEAR     58  58  99 NW5       29.85R FOG
NEW RICHMOND   MOCLDY    59  59 100 CALM      29.87R FOG
OSCEOLA        MOCLDY    60  60 100 CALM      29.90R FOG
$$

WIZ003>005-009-010-017-018-301100-
NORTH CENTRAL WISCONSIN

CITY           SKY/WX    TMP DP  RH WIND       PRES   REMARKS
MANITOWISH WTR CLOUDY    55  55 100 NE10G16   29.87R
ARBOR VITAE    CLOUDY    58  56  90 N9        29.85R
WOODRUFF       CLOUDY    58  56  90 N9        29.85R
RHINELANDER    MOCLDY    58  56  93 N3        29.85R
EAGLE RIVER    CLOUDY    56  56  98 N12       29.84R
LAND O LAKES   CLOUDY    54  54  99 N12       29.86R FOG
PHILLIPS       CLOUDY    58  57  97 N6        29.85R
TOMAHAWK       PTCLDY    56  55  96 CALM      29.84S
MEDFORD        MOCLDY    57  56  95 N6        29.84R
MERRILL        CLOUDY    59  59 100 N3        29.83R
$$

WIZ029-030-035-036-043>047-301100-
CENTRAL WISCONSIN

CITY           SKY/WX    TMP DP  RH WIND       PRES   REMARKS
WAUSAU         PTCLDY    61  58  90 N7        29.81R
MOSINEE        NOT AVBL
MARSHFIELD     CLOUDY    61  57  87 N9        29.82R FOG
STEVENS POINT  CLOUDY    58  57  98 NW5       29.81R FOG
WAUPACA        CLEAR     59  59 100 NW3       29.78S FOG
WAUTOMA        MOCLDY    59  59 100 NW6       29.80R FOG
WISC RAPIDS    CLOUDY    60  57  89 N7        29.82R
CAMP DOUGLAS   CLEAR     54  54 100 W7        29.80S FOG
$$

WIZ011>013-019>022-031-037>040-048>050-301100-
NORTHEAST WISCONSIN

CITY           SKY/WX    TMP DP  RH WIND       PRES   REMARKS
ANTIGO         CLOUDY    58  58  99 N8        29.82R
SHAWANO        CLOUDY    60  58  94 NW3       29.79R FOG
OCONTO         CLOUDY    62  62 100 N5        29.76S
STURGEON BAY   MOCLDY    59  55  88 E3        29.79R
GREEN BAY      MOCLDY    62  60  93 N9        29.76S
MANITOWOC      NOT AVBL
APPLETON       CLOUDY    59  59 100 N6        29.77S FOG
CLINTONVILLE   PTCLDY   N/A N/A N/A N3        29.78R
OSHKOSH        CLOUDY    61  58  90 W6        29.77R FOG
$$

WIZ032>034-041-042-053>061-301100-
SOUTHWEST WISCONSIN

CITY           SKY/WX    TMP DP  RH WIND       PRES   REMARKS
LA CROSSE      MOCLDY    61  60  97 N5        29.83R FOG
SPARTA         NOT AVBL
VIROQUA        MOCLDY    57  57 100 W3        29.83S VSB 1/2
BOSCOBEL       FOG       59  58  96 S3        29.83R VSB 3/4
PRAIRIE DU CHI CLEAR     59  58  96 CALM      29.83R FOG
PLATTEVILLE    CLEAR     58  57  97 W6        29.82R
$$

WIZ056-057-062-063-064-067-068-301100-
SOUTH CENTRAL WISCONSIN

CITY           SKY/WX    TMP DP  RH WIND       PRES   REMARKS
REEDSBURG      PTCLDY    56  56 100 W3        29.80S
BARABOO/DELLS  FOG       56  55  95 NW3       29.80S VSB<1/4
LONE ROCK      FOG       58  57  97 W3        29.82R VSB 1/4
MINERAL POINT  CLEAR     59  57  94 NW5       29.82R FOG
MADISON        CLEAR     59  57  93 NW3       29.80R FOG
MIDDLETON      CLEAR     60  60  99 NW7       29.80S
WATERTOWN      CLEAR     57  57 100 W3        29.77S
MONROE         CLEAR     59  59 100 W8        29.80S
JANESVILLE     CLEAR     59  57  94 CALM      29.78S
$$

WIZ051-052-058>065-066-070>072-301100-
SOUTHEAST WISCONSIN

CITY           SKY/WX    TMP DP  RH WIND       PRES   REMARKS
MILWAUKEE      PTCLDY    63  58  83 W5        29.76S
WAUKESHA       CLEAR     55  55 100 W6        29.78S
MILWAUKEE/TIMM CLEAR     59  54  82 CALM      29.77S
RACINE         MOCLDY    63  60  90 W6        29.78R FOG
BURLINGTON     PTCLDY    56  55  97 CALM      29.77S FOG
KENOSHA        PTCLDY    61  59  93 NW6       29.77S
FOND DU LAC    PTCLDY    59  57  93 NW9       29.77S
SHEBOYGAN      MOCLDY    58  57  97 CALM      29.75S FOG
WEST BEND      CLEAR     59  55  88 W5        29.77S
JUNEAU         CLEAR     58  57  97 W5        29.79R
$$

LSZ147-162-301100-
LAKE SUPERIOR

STATION/POSITION TIME  TEMP    WIND        PRES    WAVE
                       AIR SEA DIR/SP/G            HT/PER
                 (UTC) (F)     (DEG/KT/KT) (MB)    (FT/S)
W MID LAKE BUOY  0850   42 38  360/  6/  8 1013.0R   1
DEVILS ISLAND    0900   56      70/ 16/ 18 1012.4R
SAXON HARBOR     0920   57      50/ 22/ 25 1011.9R
$$

LMZ867-665-643>646-301100-
LAKE MICHIGAN

STATION/POSITION TIME  TEMP    WIND        PRES    WAVE
                       AIR SEA DIR/SP/G            HT/PER
                 (UTC) (F)     (DEG/KT/KT) (MB)    (FT/S)
CHAMBERS ISLAND  0900   64      40/  2/  4 1007.8S
S GREEN BAY BUOY 0900   66 71   10/ 14/ 16 1008.6
N MID LAKE BUOY  0850   56 54  190/  4/  4 1008.2F   1
NORTHPORT PIER   0900   60     130/  1/  2 1008.1R
SISTER BAY       0844   61      CALM  /  3   N/A
ALGOMA LAKESHORE 0810             CALM       N/A
KEWAUNEE LAKESHO 0900   58     140/  4/  8 1006.7F
SHEBOYGAN LAKESH 0900   62     280/  5/  6 1007.6S
PORT WASHINGTON  0940   63     300/  7/ 10 1008.1F
ATWATER BUOY     0900   62 59  320/  2/  2 1009.1S
MILWAUKEE LAKESH 0900   64     310/  2/  4   N/A
KENOSHA   LAKESH 0900   64     290/  4/  6 1007.8S
$$

TC  - TEMPERATURE IN CELSIUS
VSB - VISIBILITY IN STATUTE MILES
WCI - WIND CHILL INDEX
HX  - HEAT INDEX



USA.gov is the U.S. government's official web portal to all federal, state and local government web resources and services.